#timestamp,LO_Frequency,Hit 
1601031615.9,286047001.0,N
1601031635.7,286046998.2,N
1601031655.6,286046998.1,N
1601031675.4,286046998.9,N
1601031695.2,286047000.8,N
1601031715.1,286046998.6,N
1601031716.0,286046998.6,N
1601031735.8,286046999.3,N
1601031755.6,286046998.2,N
1601031775.5,286047000.6,N
1601031795.3,286046998.4,N
1601031815.1,286047001.0,N
1601031835.8,286046998.5,N
1601031855.7,286047000.8,N
1601031875.5,286046999.0,N
1601031895.3,286046998.9,N
1601031915.2,286046998.9,N
1601031935.0,286046999.4,N
1601031935.9,286046999.4,N
1601031955.7,286046999.5,N
1601031975.6,286046999.0,N
1601031995.4,286046999.0,N
1601032015.2,286046999.2,N
1601032035.1,286046998.5,N
1601032036.0,286046998.5,N
1601032055.8,286046999.0,N
1601032075.6,286046999.4,N
1601032095.5,286046996.9,P
1601032115.3,286047000.6,N
1601032135.2,286047000.9,N
1601032155.9,286046998.2,N
1601032175.7,286046998.4,N
1601032195.5,286046999.3,N
1601032215.4,286046998.3,N
1601032235.2,286046998.9,N
1601032255.0,286046998.5,N
1601032255.9,286046998.5,N
1601032275.8,286046998.7,N
1601032295.6,286047000.8,N
1601032315.4,286046999.3,N
1601032335.3,286046998.7,N
1601032355.1,286047001.1,N
1601032375.8,286046998.7,N
1601032395.7,286046999.0,N
1601032415.5,286046998.7,N
1601032435.3,286046998.6,N
1601032455.2,286046998.2,N
1601032475.9,286046999.3,N
1601032495.7,286047001.2,N
1601032515.6,286046998.6,N
1601032535.4,286046998.7,N
1601032555.2,286047001.2,N
1601032575.1,286046998.3,N
1601032576.0,286046998.3,N
1601032595.8,286046998.9,N
1601032615.6,286046998.5,N
1601032635.5,286046999.6,N
1601032655.3,286046999.0,N
1601032675.1,286046998.8,N
1601032695.9,286046998.3,N
1601032715.7,286046996.5,P
1601032735.5,286046999.0,N
1601032755.4,286046999.3,N
1601032775.2,286046998.3,N
1601032795.0,286047000.5,N
1601032795.9,286047000.5,N
1601032815.8,286046998.6,N
1601032835.6,286047001.0,N
1601032855.4,286046999.5,N
1601032875.3,286046996.6,N
1601032895.1,286046999.0,N
1601032896.0,286046999.0,N
1601032915.8,286046996.8,N
1601032935.7,286046996.5,N
1601032955.5,286046999.4,N
1601032975.3,286046999.3,N
1601032995.1,286046999.3,N
1601033015.9,286046999.1,N
1601033035.7,286046999.4,N
1601033055.5,286046997.0,N
1601033075.4,286046996.9,N
1601033095.2,286046997.2,N
1601033115.0,286046999.2,N
1601033115.9,286046999.2,N
1601033135.8,286046997.5,N
1601033155.6,286046997.2,N
1601033175.4,286046997.2,N
1601033195.3,286046997.8,N
1601033215.1,286046997.9,N
1601033235.8,286046996.9,N
1601033255.7,286046997.3,N
1601033275.5,286046997.6,N
1601033295.3,286046996.8,N
1601033315.2,286046997.9,N
1601033335.9,286046997.5,N
1601033355.7,286046997.3,N
1601033375.6,286046997.1,N
1601033395.4,286046997.7,N
1601033415.2,286046996.2,P
1601033435.1,286046999.2,N
1601033436.0,286046999.2,N
1601033455.8,286046997.2,N
1601033475.6,286046999.1,N
1601033495.5,286046998.9,N
1601033515.3,286046999.0,N
1601033535.1,286046997.3,N
1601033555.9,286046996.9,N
1601033575.7,286046997.0,N
1601033595.5,286046996.5,P
1601033615.4,286046998.4,N
1601033635.2,286046998.2,N
1601033655.0,286047000.6,N
1601033655.9,286047000.6,N
1601033675.8,286046998.5,N
1601033695.6,286047001.0,N
1601033715.4,286046999.3,N
1601033735.3,286047000.6,N
1601033755.1,286047000.5,N
1601033756.0,286047000.5,N
1601033775.8,286047000.0,N
1601033795.7,286047000.6,N
1601033815.5,286047000.6,N
1601033835.3,286047000.9,N
1601033855.2,286046998.2,N
1601033875.9,286046998.1,N
1601033895.7,286047000.3,N
1601033915.5,286047000.4,N
1601033935.4,286047000.6,N
1601033955.2,286046998.1,N
1601033975.0,286047000.6,N
1601033975.9,286047000.6,N
1601033995.8,286046998.6,N
1601034015.6,286046998.1,N
1601034035.4,286046998.1,N
1601034055.3,286047001.2,N
1601034075.1,286046998.7,N
1601034095.8,286047000.9,N
1601034115.7,286046998.5,N
1601034135.5,286047000.9,N
1601034155.3,286046998.4,N
1601034175.2,286046998.3,N
1601034195.9,286046998.3,N
1601034215.7,286046998.7,N
1601034235.6,286046999.3,N
1601034255.4,286046999.1,N
1601034275.2,286047001.0,N
1601034295.1,286046998.4,N
1601034296.0,286046998.4,N
1601034315.8,286046998.1,N
1601034335.6,286047001.2,N
1601034355.5,286047001.2,N
1601034375.3,286046998.1,N
1601034395.1,286046998.4,N
1601034415.9,286046999.1,N
1601034435.7,286046999.3,N
1601034455.5,286046996.7,N
1601034475.3,286046996.8,N
1601034495.2,286046996.6,N
1601034515.0,286046996.5,N
1601034515.9,286046996.5,N
1601034535.8,286046997.0,N
1601034555.6,286046999.1,N
1601034575.4,286046998.9,N
1601034595.2,286047000.0,N
1601034615.1,286047000.7,N
1601034616.0,286047000.7,N
1601034635.8,286047000.4,N
1601034655.6,286047000.0,N
1601034675.5,286047000.2,N
1601034695.3,286047002.1,N
1601034715.1,286047003.9,N
1601034735.9,286047003.8,N
1601034755.7,286047007.5,P
1601034775.6,286047006.3,N
1601034795.4,286047008.8,N
1601034815.2,286047008.9,N
1601034835.0,286047008.0,N
1601034836.0,286047008.0,N
1601034855.8,286047010.3,P
1601034875.6,286047003.2,N
1601034895.5,286047006.0,N
1601034915.3,286047003.6,N
1601034935.1,286047002.9,N
1601034955.9,286047005.7,N
1601034975.7,286047005.3,N
1601034995.5,286047006.0,N
1601035015.3,286047003.4,N
1601035035.2,286047003.3,N
1601035055.0,286047003.2,N
1601035055.9,286047003.2,N
1601035075.7,286047005.7,N
1601035095.6,286047003.0,N
1601035115.4,286047006.0,P
1601035135.3,286047001.1,N
1601035155.1,286047001.2,N
1601035156.0,286047001.2,N
1601035175.8,286047000.8,N
1601035195.7,286046998.1,N
